Time[GMT],gps_lat[degrees_north](-3m),gps_lon[degrees_west](-3m),gps_2_lat[degrees_north](-3m),gps_2_lon[degrees_west](-3m)
2015-06-06 17:00,43.715599060,-69.355186462,43.70,-69.35
2015-06-06 18:00,43.715568542,-69.355270386,43.71,-69.36
2015-06-06 19:00,43.715499878,-69.355186462,43.72,-69.36
2015-06-06 20:00,43.715415955,-69.355163574,43.72,-69.36
2015-06-06 21:00,43.715400696,-69.355163574,43.72,-69.36
2015-06-06 22:00,43.715415955,-69.355232239,43.72,-69.36
2015-06-06 23:00,43.715450287,-69.355247498,43.72,-69.36
2015-06-07 00:00,43.715515137,-69.355285645,,
2015-06-07 01:00,43.715568542,-69.355316162,43.72,-69.36
2015-06-07 02:00,43.715568542,-69.355270386,43.72,-69.36
2015-06-07 03:00,43.715583801,-69.355270386,43.72,-69.36
2015-06-07 04:00,43.715618134,-69.355247498,43.72,-69.36
2015-06-07 05:00,43.715599060,-69.355247498,43.72,-69.36
2015-06-07 06:00,43.715583801,-69.355232239,43.72,-69.36
2015-06-07 07:00,43.715549469,-69.355232239,43.72,-69.36
2015-06-07 08:00,43.715499878,-69.355201721,43.72,-69.36
2015-06-07 09:00,43.715450287,-69.355186462,43.72,-69.36
2015-06-07 10:00,43.715465546,-69.355216980,43.72,-69.36
2015-06-07 11:00,43.715499878,-69.355201721,,
2015-06-07 12:00,43.715515137,-69.355201721,43.72,-69.36
2015-06-07 13:00,43.715549469,-69.355216980,43.72,-69.36
2015-06-07 14:00,43.715583801,-69.355216980,,
2015-06-07 15:00,43.715618134,-69.355201721,43.72,-69.36
2015-06-07 16:00,43.715667725,-69.355201721,43.72,-69.36
2015-06-07 17:00,43.715682983,-69.355201721,43.72,-69.36
2015-06-07 18:00,43.715698242,-69.355232239,43.72,-69.36
2015-06-07 19:00,43.715648651,-69.355232239,43.72,-69.36
2015-06-07 20:00,43.715618134,-69.355216980,43.72,-69.36
2015-06-07 21:00,43.715599060,-69.355201721,43.72,-69.36
2015-06-07 22:00,43.715549469,-69.355163574,43.72,-69.36
2015-06-07 23:00,43.715534210,-69.355186462,43.72,-69.36
2015-06-08 00:00,43.715599060,-69.355216980,43.72,-69.36
2015-06-08 01:00,43.715633392,-69.355201721,43.72,-69.36
2015-06-08 02:00,43.715717316,-69.355201721,43.72,-69.36
2015-06-08 03:00,43.715751648,-69.355163574,,
2015-06-08 04:00,43.715766907,-69.355163574,43.72,-69.36
2015-06-08 05:00,43.715801239,-69.355186462,43.72,-69.36
2015-06-08 06:00,43.715782166,-69.355163574,43.72,-69.36
2015-06-08 07:00,43.715816498,-69.355133057,43.72,-69.36
2015-06-08 08:00,43.715782166,-69.355133057,43.72,-69.36
2015-06-08 09:00,43.715751648,-69.355163574,43.72,-69.36
2015-06-08 10:00,43.715698242,-69.355186462,43.72,-69.36
2015-06-08 11:00,43.715717316,-69.355148315,43.72,-69.36
2015-06-08 12:00,,,,
2015-06-08 13:00,43.715801239,-69.355079651,43.72,-69.36
2015-06-08 14:00,43.715934753,-69.355079651,43.72,-69.36
2015-06-08 16:00,43.715950012,-69.355049133,,
2015-06-08 17:00,,,,
2015-06-08 18:00,43.715950012,-69.355117798,43.72,-69.36
2015-06-08 19:00,43.715984344,-69.355148315,43.72,-69.36
2015-06-08 20:00,43.715934753,-69.355148315,43.72,-69.36
2015-06-08 21:00,43.715934753,-69.355186462,,
2015-06-08 23:00,43.715900421,-69.355163574,43.72,-69.36
2015-06-09 00:00,43.715934753,-69.355117798,43.72,-69.36
2015-06-09 01:00,43.715984344,-69.355049133,43.72,-69.36
2015-06-09 02:00,43.716014862,-69.354934692,43.72,-69.36
2015-06-09 03:00,43.716083527,-69.354896545,43.72,-69.36
2015-06-09 04:00,43.716098785,-69.354896545,43.72,-69.36
2015-06-09 05:00,43.716083527,-69.354919434,43.72,-69.36
2015-06-09 06:00,43.716033936,-69.355018616,43.72,-69.36
2015-06-09 07:00,43.715934753,-69.355079651,43.72,-69.36
2015-06-09 08:00,43.715866089,-69.355163574,43.72,-69.36
2015-06-09 09:00,43.715766907,-69.355201721,43.72,-69.36
2015-06-09 10:00,43.715682983,-69.355201721,43.72,-69.36
2015-06-09 11:00,43.715667725,-69.355163574,43.70,-69.35
2015-06-09 12:00,43.715801239,-69.355232239,43.72,-69.36
2015-06-09 13:00,43.715965271,-69.354934692,43.72,-69.36
2015-06-09 14:00,43.715965271,-69.355133057,43.72,-69.36
2015-06-09 15:00,43.716049194,-69.355079651,43.72,-69.36
2015-06-09 16:00,43.716068268,-69.355033875,,
2015-06-09 17:00,43.716083527,-69.355033875,,
2015-06-09 18:00,43.716049194,-69.355018616,,
2015-06-09 19:00,43.716014862,-69.355049133,43.72,-69.36
2015-06-09 20:00,,,,
2015-06-09 21:00,43.715965271,-69.355102539,43.72,-69.36
2015-06-09 22:00,43.715915680,-69.355117798,43.72,-69.36
2015-06-09 23:00,43.715801239,-69.355201721,43.72,-69.36
2015-06-10 00:00,43.715782166,-69.355148315,43.72,-69.36
2015-06-10 01:00,43.715950012,-69.355049133,43.72,-69.36
2015-06-10 02:00,43.715965271,-69.354949951,43.72,-69.36
2015-06-10 03:00,43.716068268,-69.354881287,43.72,-69.36
2015-06-10 04:00,43.716033936,-69.354782104,43.72,-69.36
2015-06-10 05:00,43.716033936,-69.354835510,43.72,-69.36
2015-06-10 06:00,43.715984344,-69.354850769,43.72,-69.36
2015-06-10 07:00,43.715999603,-69.354866028,43.72,-69.36
2015-06-10 08:00,43.715950012,-69.354896545,43.72,-69.36
2015-06-10 09:00,43.715866089,-69.355033875,43.72,-69.36
2015-06-10 10:00,43.715682983,-69.355033875,43.72,-69.36
2015-06-10 11:00,43.715599060,-69.354980469,43.72,-69.36
2015-06-10 12:00,43.715599060,-69.355331421,43.72,-69.36
2015-06-10 13:00,43.715534210,-69.355117798,43.72,-69.36
2015-06-10 14:00,43.715568542,-69.355148315,43.72,-69.36
2015-06-10 15:00,43.715682983,-69.355186462,43.72,-69.36
2015-06-10 16:00,,,,
2015-06-10 17:00,43.715831757,-69.355133057,43.72,-69.36
2015-06-10 18:00,43.715900421,-69.355102539,,
2015-06-10 19:00,43.715900421,-69.355133057,43.72,-69.36
2015-06-10 20:00,43.715934753,-69.355186462,43.72,-69.36
2015-06-10 21:00,43.715900421,-69.355201721,43.72,-69.36
2015-06-10 22:00,43.715850830,-69.355163574,43.72,-69.36
2015-06-10 23:00,43.715782166,-69.355186462,43.72,-69.36
2015-06-11 00:00,43.715801239,-69.355163574,43.72,-69.36
2015-06-11 01:00,43.715682983,-69.355064392,,
2015-06-11 02:00,43.715667725,-69.355079651,43.72,-69.36
2015-06-11 03:00,43.715766907,-69.355079651,43.72,-69.36
2015-06-11 04:00,43.715831757,-69.355033875,43.72,-69.36
2015-06-11 05:00,43.715900421,-69.354980469,43.72,-69.36
2015-06-11 06:00,43.715885162,-69.355018616,43.72,-69.36
2015-06-11 07:00,43.715934753,-69.355102539,43.72,-69.36
2015-06-11 09:00,43.715965271,-69.355117798,43.72,-69.36
2015-06-11 10:00,43.715950012,-69.355148315,43.72,-69.36
2015-06-11 11:00,43.715934753,-69.355117798,43.72,-69.36
2015-06-11 12:00,43.715900421,-69.355102539,43.72,-69.36
2015-06-11 13:00,43.715885162,-69.354881287,43.72,-69.36
2015-06-11 14:00,43.715900421,-69.354866028,43.72,-69.36
2015-06-11 15:00,43.715885162,-69.354736328,43.72,-69.36
2015-06-11 16:00,43.715831757,-69.354713440,,
2015-06-11 17:00,43.715885162,-69.354751587,43.72,-69.35
2015-06-11 18:00,,,,
2015-06-11 19:00,43.715915680,-69.354797363,43.72,-69.36
2015-06-11 20:00,43.715866089,-69.354934692,43.72,-69.36
2015-06-11 21:00,43.715900421,-69.355003357,43.72,-69.36
2015-06-11 22:00,43.715816498,-69.355133057,43.72,-69.36
2015-06-11 23:00,43.715732574,-69.355133057,43.72,-69.36
2015-06-12 00:00,43.715599060,-69.355102539,,
2015-06-12 01:00,43.715583801,-69.355133057,43.72,-69.36
2015-06-12 02:00,43.715568542,-69.355148315,43.72,-69.36
2015-06-12 03:00,43.715599060,-69.355148315,43.72,-69.36
2015-06-12 04:00,43.715682983,-69.355163574,43.72,-69.36
2015-06-12 05:00,43.715766907,-69.355186462,43.72,-69.36
2015-06-12 06:00,43.715816498,-69.355186462,43.72,-69.36
2015-06-12 07:00,43.715850830,-69.355163574,43.72,-69.36
2015-06-12 08:00,43.715866089,-69.355148315,43.72,-69.36
2015-06-12 09:00,43.715850830,-69.355133057,43.72,-69.36
2015-06-12 10:00,43.715866089,-69.355133057,43.72,-69.36
2015-06-12 11:00,43.715816498,-69.355117798,43.72,-69.36
2015-06-12 12:00,43.715801239,-69.355079651,43.72,-69.36
2015-06-12 13:00,43.715766907,-69.355102539,43.72,-69.36
2015-06-12 14:00,43.715732574,-69.355102539,43.72,-69.36
2015-06-12 15:00,43.715751648,-69.355049133,43.72,-69.36
2015-06-12 16:00,43.715698242,-69.355064392,43.72,-69.36
2015-06-12 17:00,43.715732574,-69.355079651,,
2015-06-12 18:00,43.715801239,-69.355079651,43.72,-69.36
2015-06-12 19:00,43.715801239,-69.355117798,43.72,-69.36
2015-06-12 20:00,43.715816498,-69.355079651,43.72,-69.36
2015-06-12 21:00,43.715850830,-69.355133057,43.72,-69.36
2015-06-12 22:00,43.715831757,-69.355148315,43.72,-69.36
2015-06-12 23:00,43.715816498,-69.355163574,43.72,-69.36
2015-06-13 00:00,43.715801239,-69.355163574,43.72,-69.36
2015-06-13 02:00,43.715751648,-69.355201721,43.72,-69.36
2015-06-13 03:00,43.715751648,-69.355201721,43.72,-69.36
2015-06-13 04:00,43.715732574,-69.355163574,43.72,-69.36
2015-06-13 05:00,43.715648651,-69.355117798,43.72,-69.36
2015-06-13 06:00,43.715732574,-69.355186462,43.72,-69.36
2015-06-13 07:00,43.715782166,-69.355232239,43.72,-69.36
2015-06-13 08:00,43.715766907,-69.355148315,43.72,-69.36
2015-06-13 09:00,43.715801239,-69.355133057,43.72,-69.36
2015-06-13 10:00,43.715816498,-69.355117798,43.72,-69.36
2015-06-13 11:00,43.715751648,-69.355133057,43.72,-69.36
2015-06-13 12:00,43.715667725,-69.355102539,43.72,-69.36
2015-06-13 13:00,43.715682983,-69.355117798,43.72,-69.36
2015-06-13 14:00,43.715667725,-69.355117798,43.72,-69.36
2015-06-13 15:00,43.715648651,-69.355163574,43.72,-69.36
2015-06-13 16:00,43.715698242,-69.355163574,43.72,-69.36
2015-06-13 17:00,43.715717316,-69.355117798,43.72,-69.36
2015-06-13 18:00,43.715816498,-69.355033875,,
2015-06-13 19:00,43.715801239,-69.355064392,43.72,-69.36
2015-06-13 20:00,43.715866089,-69.354949951,43.72,-69.36
2015-06-13 21:00,43.715801239,-69.354667664,43.72,-69.36
2015-06-13 22:00,43.715900421,-69.354949951,43.72,-69.36
2015-06-13 23:00,,,,
2015-06-14 00:00,43.715816498,-69.354949951,43.72,-69.36
2015-06-14 01:00,43.715801239,-69.354965210,43.72,-69.36
2015-06-14 03:00,43.715618134,-69.355049133,43.72,-69.36
2015-06-14 04:00,43.715599060,-69.355018616,43.72,-69.36
2015-06-14 05:00,43.715568542,-69.355033875,43.72,-69.36
2015-06-14 06:00,43.715618134,-69.355003357,43.72,-69.36
2015-06-14 07:00,43.715633392,-69.354980469,43.72,-69.36
2015-06-14 08:00,43.715682983,-69.354949951,43.72,-69.36
2015-06-14 09:00,43.715698242,-69.355003357,43.72,-69.36
2015-06-14 10:00,43.715717316,-69.355064392,43.72,-69.36
2015-06-14 11:00,43.715732574,-69.355079651,43.72,-69.36
2015-06-14 12:00,,,,
2015-06-14 13:00,43.715717316,-69.355117798,43.72,-69.36
2015-06-14 14:00,43.715717316,-69.355117798,43.72,-69.36
2015-06-14 15:00,43.715717316,-69.355133057,43.72,-69.36
2015-06-14 16:00,43.715698242,-69.355117798,43.72,-69.36
2015-06-14 17:00,43.715698242,-69.355133057,43.72,-69.36
2015-06-14 18:00,43.715717316,-69.355117798,43.72,-69.36
2015-06-14 19:00,43.715751648,-69.355117798,43.72,-69.36
2015-06-14 20:00,43.715801239,-69.355079651,43.72,-69.36
2015-06-14 21:00,43.715816498,-69.355033875,43.72,-69.36
2015-06-14 22:00,43.715831757,-69.355003357,43.72,-69.36
2015-06-14 23:00,43.715866089,-69.354965210,43.72,-69.36
2015-06-15 00:00,43.715831757,-69.354980469,,
2015-06-15 01:00,43.715782166,-69.355018616,43.72,-69.36
2015-06-15 02:00,43.715717316,-69.355079651,43.72,-69.36
2015-06-15 03:00,43.715648651,-69.355117798,43.72,-69.36
2015-06-15 04:00,43.715648651,-69.355186462,43.72,-69.36
2015-06-15 05:00,43.715667725,-69.355186462,43.72,-69.36
2015-06-15 06:00,43.715667725,-69.355133057,43.72,-69.36
2015-06-15 07:00,43.715698242,-69.355133057,43.72,-69.36
2015-06-15 08:00,43.715751648,-69.355133057,43.72,-69.36
2015-06-15 09:00,43.715766907,-69.355133057,43.72,-69.36
2015-06-15 10:00,43.715816498,-69.355186462,43.72,-69.36
2015-06-15 11:00,43.715915680,-69.355186462,43.72,-69.36
2015-06-15 12:00,43.716033936,-69.355064392,43.72,-69.36
2015-06-15 13:00,43.715999603,-69.355033875,43.72,-69.36
2015-06-15 14:00,43.715965271,-69.354980469,43.72,-69.36
2015-06-15 15:00,43.715900421,-69.355003357,43.72,-69.36
2015-06-15 16:00,43.715782166,-69.355064392,,
2015-06-15 17:00,43.715751648,-69.355102539,43.72,-69.36
2015-06-15 18:00,43.715732574,-69.355117798,43.72,-69.36
2015-06-15 19:00,43.715732574,-69.355079651,43.72,-69.36
2015-06-15 20:00,43.715782166,-69.355117798,43.72,-69.36
2015-06-15 21:00,43.715866089,-69.355148315,43.72,-69.36
2015-06-15 22:00,43.715900421,-69.355163574,43.72,-69.36
2015-06-15 23:00,43.715965271,-69.355163574,43.72,-69.35
2015-06-16 00:00,43.715915680,-69.355133057,43.72,-69.36
2015-06-16 01:00,,,,
2015-06-16 02:00,43.715885162,-69.355163574,,
2015-06-16 03:00,43.715885162,-69.355148315,,
2015-06-16 04:00,43.715866089,-69.355186462,,
2015-06-16 05:00,43.715866089,-69.355148315,,
2015-06-16 06:00,43.715866089,-69.355133057,,
2015-06-16 07:00,43.715866089,-69.355117798,,
2015-06-16 08:00,43.715850830,-69.355049133,,
2015-06-16 09:00,43.715866089,-69.355018616,,
2015-06-16 10:00,43.715866089,-69.355049133,,
2015-06-16 11:00,43.715900421,-69.355064392,,
2015-06-16 12:00,43.715915680,-69.355018616,,
2015-06-16 13:00,43.715831757,-69.355102539,,
2015-06-16 14:00,43.715801239,-69.355186462,43.72,-69.36
2015-06-16 15:00,43.715751648,-69.355186462,43.72,-69.36
2015-06-16 16:00,43.715682983,-69.355201721,43.72,-69.36
2015-06-16 17:00,43.715648651,-69.355270386,43.72,-69.36
2015-06-16 18:00,43.715648651,-69.355270386,43.72,-69.36
2015-06-16 19:00,43.715648651,-69.355232239,43.72,-69.36
2015-06-16 20:00,43.715698242,-69.355232239,43.72,-69.36
2015-06-16 22:00,43.715850830,-69.355216980,43.72,-69.36
2015-06-16 23:00,43.715900421,-69.355102539,43.72,-69.36
2015-06-17 00:00,43.715900421,-69.355033875,43.72,-69.36
2015-06-17 01:00,43.715866089,-69.355049133,43.72,-69.36
2015-06-17 02:00,43.715850830,-69.355049133,,
2015-06-17 03:00,43.715801239,-69.355003357,43.72,-69.36
2015-06-17 04:00,43.715698242,-69.354919434,43.72,-69.36
2015-06-17 05:00,43.715599060,-69.354980469,43.72,-69.36
2015-06-17 06:00,43.715599060,-69.354934692,43.72,-69.36
2015-06-17 07:00,43.715499878,-69.354934692,43.72,-69.36
2015-06-17 08:00,43.715415955,-69.354934692,43.72,-69.36
2015-06-17 09:00,43.715435028,-69.355018616,43.72,-69.36
2015-06-17 10:00,43.715435028,-69.354949951,43.72,-69.36
2015-06-17 11:00,43.715499878,-69.355003357,43.72,-69.36
2015-06-17 12:00,43.715583801,-69.355102539,43.72,-69.36
2015-06-17 13:00,43.715618134,-69.355102539,43.72,-69.36
2015-06-17 14:00,43.715648651,-69.355102539,43.72,-69.36
2015-06-17 15:00,43.715667725,-69.355079651,43.72,-69.36
2015-06-17 16:00,,,,
2015-06-17 17:00,43.715717316,-69.355148315,43.72,-69.36
2015-06-17 18:00,43.715717316,-69.355102539,43.72,-69.36
2015-06-17 19:00,43.715682983,-69.355064392,43.72,-69.36
2015-06-17 20:00,43.715732574,-69.355018616,43.72,-69.36
2015-06-17 21:00,43.715732574,-69.354782104,43.72,-69.36
2015-06-17 22:00,43.715782166,-69.354835510,43.72,-69.36
2015-06-17 23:00,43.715782166,-69.354835510,43.72,-69.36
2015-06-18 00:00,43.715751648,-69.354797363,43.72,-69.36
2015-06-18 01:00,43.715732574,-69.354866028,,
2015-06-18 02:00,43.715682983,-69.354919434,43.72,-69.36
2015-06-18 03:00,43.715633392,-69.355003357,43.72,-69.36
2015-06-18 04:00,43.715618134,-69.355064392,43.72,-69.36
2015-06-18 05:00,43.715618134,-69.355102539,43.72,-69.36
2015-06-18 06:00,43.715618134,-69.355117798,43.72,-69.36
2015-06-18 07:00,43.715633392,-69.355163574,43.72,-69.36
2015-06-18 08:00,43.715599060,-69.355133057,43.72,-69.36
2015-06-18 09:00,43.715633392,-69.355102539,43.72,-69.36
2015-06-18 10:00,43.715618134,-69.355064392,43.72,-69.36
2015-06-18 11:00,43.715667725,-69.355064392,43.72,-69.36
2015-06-18 12:00,43.715751648,-69.355018616,43.72,-69.36
2015-06-18 13:00,43.715816498,-69.355049133,43.72,-69.36
2015-06-18 14:00,43.715831757,-69.355033875,43.72,-69.36
2015-06-18 15:00,43.715816498,-69.355049133,43.72,-69.36
2015-06-18 16:00,43.715816498,-69.355049133,43.72,-69.36
2015-06-18 17:00,43.715850830,-69.355049133,43.72,-69.36
2015-06-18 18:00,43.715866089,-69.355033875,,
2015-06-18 19:00,43.715816498,-69.355064392,43.72,-69.36
2015-06-18 20:00,43.715831757,-69.355049133,43.72,-69.36
2015-06-18 21:00,43.715816498,-69.355003357,43.72,-69.36
2015-06-18 22:00,43.715866089,-69.355049133,43.72,-69.36
2015-06-18 23:00,43.715885162,-69.355049133,43.72,-69.36
2015-06-19 00:00,43.715885162,-69.355033875,,
2015-06-19 01:00,43.715900421,-69.355018616,43.72,-69.36
2015-06-19 02:00,43.715915680,-69.355033875,43.72,-69.36
2015-06-19 03:00,43.715915680,-69.355033875,43.72,-69.36
2015-06-19 04:00,43.715915680,-69.355079651,43.72,-69.36
2015-06-19 05:00,43.715934753,-69.355033875,43.72,-69.36
2015-06-19 06:00,43.715950012,-69.354980469,43.72,-69.36
2015-06-19 07:00,43.715885162,-69.355064392,43.72,-69.36
2015-06-19 08:00,43.715866089,-69.354949951,,
2015-06-19 09:00,43.715831757,-69.354782104,43.72,-69.36
2015-06-19 10:00,43.715751648,-69.354820251,43.72,-69.36
2015-06-19 11:00,43.715816498,-69.354797363,43.72,-69.36
2015-06-19 12:00,43.715816498,-69.354782104,43.72,-69.36
2015-06-19 13:00,43.715850830,-69.354835510,43.72,-69.36
2015-06-19 14:00,43.715850830,-69.354866028,43.72,-69.36
2015-06-19 16:00,43.715816498,-69.355003357,43.72,-69.36
2015-06-19 17:00,43.715816498,-69.355064392,43.72,-69.36
2015-06-19 18:00,43.715782166,-69.355148315,43.72,-69.36
2015-06-19 19:00,43.715751648,-69.355186462,,
2015-06-19 20:00,43.715698242,-69.355216980,43.72,-69.36
2015-06-19 21:00,43.715732574,-69.355186462,43.72,-69.36
2015-06-19 22:00,43.715782166,-69.355186462,43.72,-69.36
2015-06-19 23:00,43.715831757,-69.355133057,43.72,-69.36
2015-06-20 00:00,43.715850830,-69.355102539,43.72,-69.36
2015-06-20 01:00,,,,
2015-06-20 02:00,43.715831757,-69.355079651,43.72,-69.36
2015-06-20 03:00,43.715816498,-69.355064392,43.72,-69.36
2015-06-20 04:00,43.715782166,-69.355079651,43.72,-69.36
2015-06-20 05:00,43.715751648,-69.355102539,43.72,-69.36
2015-06-20 06:00,43.715732574,-69.355133057,,
2015-06-20 07:00,43.715717316,-69.355117798,43.72,-69.36
2015-06-20 08:00,43.715648651,-69.355102539,43.72,-69.36
2015-06-20 09:00,43.715648651,-69.355102539,43.72,-69.36
2015-06-20 10:00,43.715648651,-69.355102539,43.72,-69.36
2015-06-20 11:00,43.715915680,-69.355552673,43.72,-69.36
2015-06-20 12:00,43.715682983,-69.355117798,43.72,-69.36
2015-06-20 13:00,43.715698242,-69.355163574,43.72,-69.36
2015-06-20 14:00,43.715717316,-69.355163574,43.72,-69.36
2015-06-20 15:00,43.715782166,-69.355148315,43.72,-69.36
2015-06-20 16:00,43.715831757,-69.355186462,43.72,-69.36
2015-06-20 17:00,43.715900421,-69.355163574,43.72,-69.36
2015-06-20 18:00,43.715915680,-69.355133057,43.72,-69.36
2015-06-20 19:00,,,,
2015-06-20 20:00,43.715915680,-69.355049133,43.72,-69.36
2015-06-20 21:00,43.715900421,-69.354965210,43.72,-69.36
2015-06-20 22:00,43.715866089,-69.354949951,43.72,-69.36
2015-06-20 23:00,43.715915680,-69.354949951,43.72,-69.36
2015-06-21 00:00,43.715885162,-69.354949951,43.72,-69.36
2015-06-21 01:00,43.715885162,-69.354965210,43.72,-69.36
2015-06-21 02:00,43.715915680,-69.354965210,43.72,-69.36
2015-06-21 03:00,43.715915680,-69.355003357,43.72,-69.36
2015-06-21 04:00,43.715900421,-69.355033875,43.72,-69.36
2015-06-21 05:00,43.715885162,-69.355148315,43.72,-69.36
2015-06-21 06:00,43.715866089,-69.355201721,43.72,-69.36
2015-06-21 07:00,43.715900421,-69.355201721,43.72,-69.36
2015-06-21 08:00,43.715950012,-69.355186462,,
2015-06-21 09:00,43.715950012,-69.355163574,43.72,-69.36
2015-06-21 10:00,43.715866089,-69.355117798,43.72,-69.36
2015-06-21 11:00,43.716033936,-69.355102539,43.72,-69.36
2015-06-21 12:00,43.716098785,-69.354980469,,
2015-06-21 13:00,43.716133118,-69.354934692,43.72,-69.36
2015-06-21 14:00,,,,
2015-06-21 15:00,43.716117859,-69.354682922,43.72,-69.35
2015-06-21 16:00,43.716098785,-69.354637146,43.72,-69.35
2015-06-21 17:00,43.716083527,-69.354598999,43.72,-69.35
2015-06-21 18:00,43.715934753,-69.354583740,43.72,-69.35
2015-06-21 19:00,43.715633392,-69.354766846,43.72,-69.35
2015-06-21 20:00,43.715534210,-69.355064392,43.72,-69.36
2015-06-21 21:00,43.715534210,-69.355148315,43.72,-69.36
2015-06-21 22:00,43.715499878,-69.355163574,43.72,-69.36
2015-06-21 23:00,43.715515137,-69.355331421,43.72,-69.36
2015-06-22 00:00,43.715534210,-69.355331421,43.72,-69.36
2015-06-22 01:00,43.715583801,-69.355369568,43.72,-69.36
2015-06-22 02:00,43.715568542,-69.355384827,43.72,-69.36
2015-06-22 03:00,43.715648651,-69.355400085,43.72,-69.36
2015-06-22 04:00,43.715717316,-69.355384827,43.72,-69.36
2015-06-22 05:00,43.715751648,-69.355331421,43.72,-69.36
2015-06-22 06:00,43.715816498,-69.355270386,43.72,-69.36
2015-06-22 07:00,43.715816498,-69.355186462,43.72,-69.36
2015-06-22 08:00,43.715751648,-69.355163574,43.72,-69.36
2015-06-22 09:00,43.715682983,-69.355133057,43.72,-69.36
2015-06-22 10:00,43.715599060,-69.355102539,43.72,-69.36
2015-06-22 11:00,43.715599060,-69.354980469,43.72,-69.36
2015-06-22 12:00,43.715583801,-69.354980469,43.72,-69.36
2015-06-22 13:00,43.715534210,-69.354919434,43.72,-69.36
2015-06-22 14:00,43.715549469,-69.354980469,43.72,-69.36
2015-06-22 15:00,43.715568542,-69.355033875,43.72,-69.36
2015-06-22 16:00,43.715618134,-69.355064392,43.72,-69.36
2015-06-22 17:00,43.715682983,-69.355117798,43.72,-69.36
2015-06-22 18:00,43.715667725,-69.355201721,43.72,-69.36
2015-06-22 19:00,43.715633392,-69.355232239,43.72,-69.36
2015-06-22 20:00,,,,
2015-06-22 21:00,43.715618134,-69.355186462,43.72,-69.36
2015-06-22 22:00,43.715599060,-69.355201721,43.72,-69.36
2015-06-22 23:00,43.715682983,-69.355232239,43.72,-69.36
2015-06-23 00:00,43.715667725,-69.355216980,43.72,-69.36
2015-06-23 01:00,43.715667725,-69.355270386,,
2015-06-23 02:00,43.715682983,-69.355232239,43.72,-69.36
2015-06-23 03:00,43.715717316,-69.355186462,43.72,-69.36
2015-06-23 04:00,43.715732574,-69.355133057,43.72,-69.36
2015-06-23 05:00,43.715732574,-69.355117798,43.72,-69.36
2015-06-23 06:00,43.715698242,-69.355117798,43.72,-69.36
2015-06-23 07:00,43.715648651,-69.355148315,43.72,-69.36
2015-06-23 08:00,43.715618134,-69.355163574,43.72,-69.36
2015-06-23 09:00,43.715618134,-69.355186462,43.72,-69.36
2015-06-23 10:00,43.715568542,-69.355201721,43.72,-69.36
2015-06-23 11:00,43.715568542,-69.355232239,43.72,-69.36
2015-06-23 12:00,43.715618134,-69.355285645,43.72,-69.36
2015-06-23 13:00,43.715667725,-69.355300903,43.72,-69.36
2015-06-23 14:00,43.715717316,-69.355331421,43.72,-69.36
2015-06-23 15:00,43.715816498,-69.355346680,43.72,-69.36
2015-06-23 16:00,43.715782166,-69.355331421,43.72,-69.36
2015-06-23 17:00,,,,
2015-06-23 18:00,43.715984344,-69.355285645,43.72,-69.36
2015-06-23 19:00,,,,
2015-06-23 20:00,43.715900421,-69.355186462,43.72,-69.36
2015-06-23 21:00,43.715782166,-69.355186462,,
2015-06-23 22:00,,,,
2015-06-23 23:00,43.715599060,-69.355163574,43.72,-69.36
2015-06-24 00:00,43.715568542,-69.355148315,43.72,-69.36
2015-06-24 01:00,43.715549469,-69.355148315,43.72,-69.36
2015-06-24 02:00,43.715583801,-69.355232239,43.72,-69.36
2015-06-24 03:00,43.715568542,-69.355163574,43.72,-69.36
2015-06-24 04:00,43.715568542,-69.355186462,43.72,-69.36
2015-06-24 05:00,43.715599060,-69.355201721,43.72,-69.36
2015-06-24 06:00,43.715667725,-69.355270386,43.72,-69.36
2015-06-24 07:00,43.715633392,-69.355247498,43.72,-69.36
2015-06-24 08:00,43.715698242,-69.355300903,43.72,-69.36
2015-06-24 09:00,43.715698242,-69.355316162,43.72,-69.36
2015-06-24 10:00,43.715717316,-69.355285645,43.72,-69.36
2015-06-24 11:00,43.715732574,-69.355247498,43.72,-69.36
2015-06-24 12:00,43.715717316,-69.355270386,43.72,-69.36
2015-06-24 13:00,43.715698242,-69.355232239,43.72,-69.36
2015-06-24 14:00,43.715751648,-69.355247498,43.72,-69.36
2015-06-24 15:00,43.715782166,-69.355216980,43.72,-69.36
2015-06-24 16:00,43.715801239,-69.355148315,43.72,-69.36
2015-06-24 17:00,43.715801239,-69.355102539,43.72,-69.36
2015-06-24 18:00,43.715801239,-69.355117798,43.72,-69.36
2015-06-24 19:00,43.715782166,-69.355079651,43.72,-69.36
2015-06-24 20:00,43.715751648,-69.355148315,43.72,-69.36